Simultaneous Nadir Overpasses (SNOs) Predictions

Prediction of SNOs between GOES-17 and LANDSAT-8 Satellite Orbit:

Table of predicted SNOs for the next 14.0 days since TLE Epoch: 2/25/2023
Index Date Time (GOES-17) GOES-17 Lat,Lon LANDSAT-8 Lat,Lon Distance(km) Time Diff (sec)
1 02/25/2023 17:06:39 -0.00,-104.71 -0.31,-103.27 163.21 80
2 02/26/2023 05:28:03 0.01,-104.68 -0.81,-108.46 429.91 80
3 02/27/2023 16:54:28 -0.01,-104.71 -0.93,-100.32 499.00 80
4 02/28/2023 05:15:52 0.01,-104.69 -0.18,-105.51 94.18 80
5 03/02/2023 05:01:01 0.02,-104.69 0.46,-102.56 241.75 80
6 03/02/2023 17:22:17 -0.02,-104.71 0.61,-107.72 342.16 80
7 03/04/2023 17:10:05 -0.02,-104.72 0.00,-104.77 5.87 80
8 03/06/2023 17:00:33 -0.02,-104.72 -0.62,-101.81 331.04 80
9 03/07/2023 05:21:57 0.02,-104.70 -0.48,-107.00 261.58 80
10 03/09/2023 05:07:05 0.01,-104.71 0.17,-104.05 75.63 80
